,,,PA_Meas_PMT16A,,PR_Meas_QMR101_102,,RH_Meas_QMH101,,SR_Meas_QMS101,,TA_Meas_QMH101,,GenWind,,GenWind,
date,time,status,PA,status,PR,status,RH,status,SR,status,TA,status,DirAvg,status,SpdAvg,
2010-08-12, 00:00:04,VALID,1002.65,VALID,0,VALID,91.1816,VALID,0,VALID,24.3842,VALID,78,VALID,0.793359,
2010-08-12, 00:01:04,VALID,1002.65,VALID,0,VALID,91.1587,VALID,0,VALID,24.3647,VALID,78,VALID,0.726172,
2010-08-12, 00:02:04,VALID,1002.64,VALID,0,VALID,91.2045,VALID,0,VALID,24.3452,VALID,76,VALID,0.834766,
2010-08-12, 00:03:04,VALID,1002.62,VALID,0,VALID,91.174,VALID,0,VALID,24.3257,VALID,76,VALID,0.683203,
2010-08-12, 00:04:04,VALID,1002.61,VALID,0,VALID,91.1587,VALID,0,VALID,24.2866,VALID,76,VALID,0.641797,
2010-08-12, 00:05:04,VALID,1002.62,VALID,0,VALID,91.1968,VALID,0,VALID,24.2671,VALID,76,VALID,0.648047,
2010-08-12, 00:06:04,VALID,1002.6,VALID,0,VALID,91.1816,VALID,0,VALID,24.2653,VALID,76,VALID,0.542188,
2010-08-12, 00:07:04,VALID,1002.58,VALID,0,VALID,91.296,VALID,0,VALID,24.2653,VALID,66,VALID,0.479297,
2010-08-12, 00:08:04,VALID,1002.54,VALID,0,VALID,91.2655,VALID,0,VALID,24.2458,VALID,66,VALID,0.283984,
2010-08-12, 00:09:04,VALID,1002.54,VALID,0,VALID,91.3418,VALID,0,VALID,24.2476,VALID,66,VALID,0.0121094,
2010-08-12, 00:10:04,VALID,1002.54,VALID,0,VALID,91.4563,VALID,0,VALID,24.2067,VALID,66,VALID,0,
2010-08-12, 00:11:04,VALID,1002.56,VALID,0,VALID,91.6012,VALID,0,VALID,24.2067,VALID,66,VALID,0.0605469,
2010-08-12, 00:12:04,VALID,1002.53,VALID,0,VALID,91.708,VALID,0.112286,VALID,24.1872,VALID,66,VALID,0.303516,
2010-08-12, 00:13:04,VALID,1002.55,VALID,0,VALID,91.8377,VALID,0,VALID,24.1269,VALID,66,VALID,0.250391,
2010-08-12, 00:14:04,VALID,1002.55,VALID,0,VALID,91.9827,VALID,0.112286,VALID,24.1482,VALID,66,VALID,0.453906,
2010-08-12, 00:15:04,VALID,1002.53,VALID,0,VALID,92.1048,VALID,0,VALID,24.1287,VALID,66,VALID,0.469922,
2010-08-12, 00:16:04,VALID,1002.51,VALID,0,VALID,92.204,VALID,0,VALID,24.1287,VALID,66,VALID,0,
2010-08-12, 00:17:04,VALID,1002.52,VALID,0,VALID,92.3108,VALID,0,VALID,24.1287,VALID,66,VALID,0,
2010-08-12, 00:18:04,VALID,1002.54,VALID,0,VALID,92.3794,VALID,0,VALID,24.111,VALID,66,VALID,0,
2010-08-12, 00:19:04,VALID,1002.52,VALID,0,VALID,92.3947,VALID,0,VALID,24.0897,VALID,66,VALID,0,
2010-08-12, 00:20:04,VALID,1002.52,VALID,0,VALID,92.41,VALID,0,VALID,24.0915,VALID,66,VALID,0,
2010-08-12, 00:21:04,VALID,1002.51,VALID,0,VALID,92.3947,VALID,0,VALID,24.072,VALID,66,VALID,0,
2010-08-12, 00:22:04,VALID,1002.52,VALID,0,VALID,92.3794,VALID,0,VALID,24.0506,VALID,66,VALID,0,
2010-08-12, 00:23:04,VALID,1002.55,VALID,0,VALID,92.3718,VALID,0,VALID,24.0506,VALID,66,VALID,0,
2010-08-12, 00:24:04,VALID,1002.53,VALID,0,VALID,92.3718,VALID,0,VALID,24.0525,VALID,66,VALID,0,
2010-08-12, 00:25:04,VALID,1002.55,VALID,0,VALID,92.3642,VALID,0,VALID,24.0311,VALID,55,VALID,0,
2010-08-12, 00:26:04,VALID,1002.56,VALID,0,VALID,92.3184,VALID,0,VALID,24.0311,VALID,55,VALID,0,
2010-08-12, 00:27:04,VALID,1002.55,VALID,0,VALID,92.2268,VALID,0,VALID,24.0311,VALID,55,VALID,0,
2010-08-12, 00:28:04,VALID,1002.55,VALID,0,VALID,92.0361,VALID,0,VALID,24.0525,VALID,55,VALID,0,
2010-08-12, 00:29:04,VALID,1002.59,VALID,0,VALID,91.9064,VALID,0,VALID,24.0116,VALID,55,VALID,0,
2010-08-12, 00:30:04,VALID,1002.57,VALID,0,VALID,91.853,VALID,0,VALID,24.0116,VALID,48,VALID,0,
2010-08-12, 00:31:04,VALID,1002.58,VALID,0,VALID,91.8759,VALID,0,VALID,23.9921,VALID,45,VALID,0,
2010-08-12, 00:32:04,VALID,1002.57,VALID,0,VALID,91.8988,VALID,0,VALID,23.9921,VALID,36,VALID,0,
2010-08-12, 00:33:04,VALID,1002.56,VALID,0,VALID,91.8759,VALID,0,VALID,23.9939,VALID,36,VALID,0,
2010-08-12, 00:34:04,VALID,1002.54,VALID,0,VALID,91.8225,VALID,0,VALID,24.0329,VALID,36,VALID,0,
2010-08-12, 00:35:04,VALID,1002.56,VALID,0,VALID,91.7385,VALID,0,VALID,24.0311,VALID,36,VALID,0,
2010-08-12, 00:36:04,VALID,1002.55,VALID,0,VALID,91.6546,VALID,0,VALID,24.0525,VALID,36,VALID,0,
2010-08-12, 00:37:04,VALID,1002.54,VALID,0,VALID,91.6317,VALID,0,VALID,24.0525,VALID,36,VALID,0,
2010-08-12, 00:38:04,VALID,1002.54,VALID,0,VALID,91.6928,VALID,0,VALID,24.0506,VALID,36,VALID,0,
2010-08-12, 00:39:04,VALID,1002.53,VALID,0,VALID,91.7157,VALID,0,VALID,24.0506,VALID,36,VALID,0,
2010-08-12, 00:40:04,VALID,1002.51,VALID,0,VALID,91.7538,VALID,0,VALID,24.0506,VALID,36,VALID,0,
2010-08-12, 00:41:04,VALID,1002.5,VALID,0,VALID,91.8072,VALID,0,VALID,24.072,VALID,36,VALID,0,
2010-08-12, 00:42:04,VALID,1002.51,VALID,0,VALID,91.8454,VALID,0,VALID,24.072,VALID,36,VALID,0,
2010-08-12, 00:43:04,VALID,1002.48,VALID,0,VALID,91.8377,VALID,0,VALID,24.0897,VALID,36,VALID,0,
2010-08-12, 00:44:04,VALID,1002.51,VALID,0,VALID,91.853,VALID,0,VALID,24.1305,VALID,36,VALID,0,
2010-08-12, 00:45:04,VALID,1002.49,VALID,0,VALID,91.8225,VALID,0,VALID,24.1287,VALID,36,VALID,0,
2010-08-12, 00:46:04,VALID,1002.47,VALID,0,VALID,91.8225,VALID,0,VALID,24.15,VALID,36,VALID,0,
2010-08-12, 00:47:04,VALID,1002.47,VALID,0,VALID,91.8072,VALID,0,VALID,24.15,VALID,36,VALID,0,
2010-08-12, 00:48:04,VALID,1002.44,VALID,0,VALID,91.7843,VALID,0,VALID,24.15,VALID,36,VALID,0,
2010-08-12, 00:49:04,VALID,1002.43,VALID,0,VALID,91.7157,VALID,0,VALID,24.15,VALID,36,VALID,0,
2010-08-12, 00:50:04,VALID,1002.47,VALID,0,VALID,91.6317,VALID,0,VALID,24.1696,VALID,36,VALID,0,
2010-08-12, 00:51:04,VALID,1002.49,VALID,0,VALID,91.502,VALID,0,VALID,24.1696,VALID,36,VALID,0,
2010-08-12, 00:52:04,VALID,1002.49,VALID,0,VALID,91.3876,VALID,0,VALID,24.1696,VALID,36,VALID,0,
2010-08-12, 00:53:04,VALID,1002.5,VALID,0,VALID,91.3037,VALID,0,VALID,24.1891,VALID,36,VALID,0,
2010-08-12, 00:54:04,VALID,1002.53,VALID,0,VALID,91.2579,VALID,0,VALID,24.2086,VALID,36,VALID,0,
2010-08-12, 00:55:04,VALID,1002.54,VALID,0,VALID,91.2197,VALID,0,VALID,24.2086,VALID,36,VALID,0,
2010-08-12, 00:56:04,VALID,1002.54,VALID,0,VALID,91.0748,VALID,0,VALID,24.2067,VALID,36,VALID,0,
2010-08-12, 00:57:04,VALID,1002.55,VALID,0,VALID,90.9909,VALID,0,VALID,24.2086,VALID,36,VALID,0,
2010-08-12, 00:58:04,VALID,1002.55,VALID,0,VALID,90.9222,VALID,0,VALID,24.1677,VALID,36,VALID,0,
2010-08-12, 00:59:04,VALID,1002.53,VALID,0,VALID,90.8077,VALID,0,VALID,24.2086,VALID,36,VALID,0,
2010-08-12, 01:00:04,VALID,1002.5,VALID,0,VALID,90.6551,VALID,0,VALID,24.2476,VALID,36,VALID,0,
2010-08-12, 01:01:04,VALID,1002.5,VALID,0,VALID,90.5788,VALID,0,VALID,24.2653,VALID,36,VALID,0,
2010-08-12, 01:02:04,VALID,1002.47,VALID,0,VALID,90.411,VALID,0,VALID,24.3062,VALID,36,VALID,0,
2010-08-12, 01:03:04,VALID,1002.45,VALID,0,VALID,90.2203,VALID,0,VALID,24.3062,VALID,36,VALID,0,
2010-08-12, 01:04:04,VALID,1002.45,VALID,0,VALID,89.9761,VALID,0,VALID,24.3257,VALID,36,VALID,0,
2010-08-12, 01:05:04,VALID,1002.42,VALID,0,VALID,90.0143,VALID,0,VALID,24.3452,VALID,36,VALID,0,
2010-08-12, 01:06:04,VALID,1002.41,VALID,0,VALID,90.0219,VALID,0,VALID,24.3647,VALID,36,VALID,0,
2010-08-12, 01:07:04,VALID,1002.42,VALID,0,VALID,89.9303,VALID,0,VALID,24.3647,VALID,36,VALID,0,
2010-08-12, 01:08:04,VALID,1002.4,VALID,0,VALID,89.5336,VALID,0,VALID,24.3647,VALID,36,VALID,0,
2010-08-12, 01:09:04,VALID,1002.36,VALID,0,VALID,89.4344,VALID,0,VALID,24.3452,VALID,36,VALID,0,
2010-08-12, 01:10:04,VALID,1002.38,VALID,0,VALID,89.2284,VALID,0,VALID,24.3647,VALID,36,VALID,0,
2010-08-12, 01:11:04,VALID,1002.38,VALID,0,VALID,89.0911,VALID,0,VALID,24.3842,VALID,36,VALID,0,
2010-08-12, 01:12:04,VALID,1002.37,VALID,0,VALID,88.9537,VALID,0,VALID,24.3842,VALID,36,VALID,0,
2010-08-12, 01:13:04,VALID,1002.38,VALID,0,VALID,89.3581,VALID,0,VALID,24.4233,VALID,36,VALID,0,
2010-08-12, 01:14:04,VALID,1002.38,VALID,0,VALID,88.7935,VALID,0,VALID,24.4233,VALID,36,VALID,0,
2010-08-12, 01:15:04,VALID,1002.37,VALID,0,VALID,88.4883,VALID,0,VALID,24.4623,VALID,36,VALID,0,
2010-08-12, 01:16:04,VALID,1002.39,VALID,0,VALID,88.6943,VALID,0,VALID,24.4623,VALID,36,VALID,0,
2010-08-12, 01:17:04,VALID,1002.39,VALID,0,VALID,88.5189,VALID,0,VALID,24.4623,VALID,112,VALID,0,
2010-08-12, 01:18:04,VALID,1002.39,VALID,0,VALID,88.0458,VALID,0,VALID,24.4623,VALID,112,VALID,0,
2010-08-12, 01:19:04,VALID,1002.38,VALID,0,VALID,87.6567,VALID,0,VALID,24.4623,VALID,165,VALID,0,
2010-08-12, 01:20:04,VALID,1002.36,VALID,0,VALID,87.7101,VALID,0,VALID,24.5209,VALID,184,VALID,0.89375,
2010-08-12, 01:21:04,VALID,1002.39,VALID,0,VALID,87.3592,VALID,0,VALID,24.6184,VALID,195,VALID,0.540234,
2010-08-12, 01:22:04,VALID,1002.38,VALID,0,VALID,87.382,VALID,0,VALID,24.6361,VALID,225,VALID,0.678125,
2010-08-12, 01:23:04,VALID,1002.38,VALID,0,VALID,87.3973,VALID,0,VALID,24.677,VALID,228,VALID,0.530469,
2010-08-12, 01:24:04,VALID,1002.38,VALID,0,VALID,87.1303,VALID,0,VALID,24.6965,VALID,215,VALID,0.851953,
2010-08-12, 01:25:04,VALID,1002.38,VALID,0,VALID,87.0463,VALID,0,VALID,24.7356,VALID,202,VALID,0.605859,
2010-08-12, 01:26:04,VALID,1002.39,VALID,0,VALID,86.8937,VALID,0,VALID,24.7551,VALID,202,VALID,0.472656,
2010-08-12, 01:27:04,VALID,1002.39,VALID,0,VALID,86.9395,VALID,0,VALID,24.7551,VALID,224,VALID,0.441406,
2010-08-12, 01:28:04,VALID,1002.37,VALID,0,VALID,86.9243,VALID,0,VALID,24.7551,VALID,224,VALID,0.216406,
2010-08-12, 01:29:04,VALID,1002.34,VALID,0,VALID,87.054,VALID,0,VALID,24.7551,VALID,200,VALID,0.335547,
2010-08-12, 01:30:04,VALID,1002.34,VALID,0,VALID,87.4583,VALID,0,VALID,24.7356,VALID,200,VALID,0,
2010-08-12, 01:31:04,VALID,1002.31,VALID,0,VALID,87.7635,VALID,0,VALID,24.716,VALID,200,VALID,0,
2010-08-12, 01:32:04,VALID,1002.29,VALID,0,VALID,87.8856,VALID,0,VALID,24.677,VALID,200,VALID,0,
2010-08-12, 01:33:04,VALID,1002.3,VALID,0,VALID,88.0611,VALID,0,VALID,24.6575,VALID,200,VALID,0,
2010-08-12, 01:34:04,VALID,1002.27,VALID,0,VALID,88.1832,VALID,0,VALID,24.6166,VALID,200,VALID,0,
2010-08-12, 01:35:04,VALID,1002.29,VALID,0,VALID,88.4349,VALID,0,VALID,24.5989,VALID,200,VALID,0,
2010-08-12, 01:36:04,VALID,1002.3,VALID,0,VALID,88.7477,VALID,0,VALID,24.5794,VALID,200,VALID,0,
2010-08-12, 01:37:04,VALID,1002.31,VALID,0,VALID,89.0071,VALID,0,VALID,24.5209,VALID,200,VALID,0,
2010-08-12, 01:38:04,VALID,1002.3,VALID,0,VALID,89.2589,VALID,0,VALID,24.4818,VALID,200,VALID,0,
2010-08-12, 01:39:04,VALID,1002.31,VALID,0,VALID,89.5107,VALID,0,VALID,24.4428,VALID,200,VALID,0,
2010-08-12, 01:40:04,VALID,1002.32,VALID,0,VALID,89.7243,VALID,0,VALID,24.4233,VALID,200,VALID,0,
2010-08-12, 01:41:04,VALID,1002.27,VALID,0,VALID,89.9761,VALID,0,VALID,24.3842,VALID,200,VALID,0,
2010-08-12, 01:42:04,VALID,1002.31,VALID,0,VALID,90.0143,VALID,0,VALID,24.3647,VALID,200,VALID,0,
2010-08-12, 01:43:04,VALID,1002.23,VALID,0,VALID,90.06,VALID,0,VALID,24.3062,VALID,200,VALID,0,
2010-08-12, 01:44:04,VALID,1002.23,VALID,0,VALID,90.3881,VALID,0,VALID,24.2671,VALID,200,VALID,0,
2010-08-12, 01:45:04,VALID,1002.19,VALID,0,VALID,90.6704,VALID,0,VALID,24.2476,VALID,200,VALID,0,
2010-08-12, 01:46:04,VALID,1002.18,VALID,0,VALID,90.8611,VALID,0,VALID,24.2086,VALID,200,VALID,0,
2010-08-12, 01:47:04,VALID,1002.17,VALID,0,VALID,91.0366,VALID,0,VALID,24.1891,VALID,200,VALID,0,
2010-08-12, 01:48:04,VALID,1002.16,VALID,0,VALID,91.1587,VALID,0,VALID,24.1482,VALID,200,VALID,0,
2010-08-12, 01:49:04,VALID,1002.15,VALID,0,VALID,91.235,VALID,0,VALID,24.15,VALID,200,VALID,0,
2010-08-12, 01:50:04,VALID,1002.15,VALID,0,VALID,91.3189,VALID,0,VALID,24.111,VALID,200,VALID,0,
2010-08-12, 01:51:04,VALID,1002.12,VALID,0,VALID,91.4105,VALID,0,VALID,24.111,VALID,200,VALID,0,
2010-08-12, 01:52:04,VALID,1002.17,VALID,0,VALID,91.5173,VALID,0,VALID,24.072,VALID,200,VALID,0,
2010-08-12, 01:53:04,VALID,1002.16,VALID,0,VALID,91.6623,VALID,0,VALID,24.072,VALID,200,VALID,0,
2010-08-12, 01:54:04,VALID,1002.2,VALID,0,VALID,91.7385,VALID,0,VALID,24.0525,VALID,200,VALID,0,
2010-08-12, 01:55:04,VALID,1002.16,VALID,0,VALID,91.8072,VALID,0,VALID,24.0329,VALID,200,VALID,0,
2010-08-12, 01:56:04,VALID,1002.19,VALID,0,VALID,91.853,VALID,0,VALID,24.0329,VALID,200,VALID,0,
2010-08-12, 01:57:04,VALID,1002.17,VALID,0,VALID,91.9445,VALID,0,VALID,24.0329,VALID,200,VALID,0,
2010-08-12, 01:58:04,VALID,1002.18,VALID,0,VALID,92.0437,VALID,0,VALID,24.0134,VALID,200,VALID,0,
2010-08-12, 01:59:04,VALID,1002.19,VALID,0,VALID,92.1353,VALID,0,VALID,24.0329,VALID,200,VALID,0,
2010-08-12, 02:00:04,VALID,1002.17,VALID,0,VALID,92.1734,VALID,0,VALID,24.0134,VALID,200,VALID,0,
2010-08-12, 02:01:04,VALID,1002.16,VALID,0,VALID,92.2268,VALID,0,VALID,24.0134,VALID,200,VALID,0,
2010-08-12, 02:02:04,VALID,1002.15,VALID,0,VALID,92.2116,VALID,0,VALID,23.9744,VALID,200,VALID,0,
2010-08-12, 02:03:04,VALID,1002.12,VALID,0,VALID,92.2268,VALID,0,VALID,23.9744,VALID,200,VALID,0,
2010-08-12, 02:04:04,VALID,1002.13,VALID,0,VALID,92.2497,VALID,0,VALID,23.9549,VALID,200,VALID,0,
2010-08-12, 02:05:04,VALID,1002.1,VALID,0,VALID,92.2726,VALID,0,VALID,23.9354,VALID,200,VALID,0,
2010-08-12, 02:06:04,VALID,1002.13,VALID,0,VALID,92.2726,VALID,0,VALID,23.8963,VALID,200,VALID,0,
2010-08-12, 02:07:04,VALID,1002.11,VALID,0,VALID,92.2955,VALID,0,VALID,23.8573,VALID,200,VALID,0,
2010-08-12, 02:08:04,VALID,1002.06,VALID,0,VALID,92.3566,VALID,0,VALID,23.8378,VALID,200,VALID,0,
2010-08-12, 02:09:04,VALID,1002.06,VALID,0,VALID,92.4481,VALID,0,VALID,23.8165,VALID,200,VALID,0,
2010-08-12, 02:10:04,VALID,1002.03,VALID,0,VALID,92.5931,VALID,0,VALID,23.8378,VALID,200,VALID,0,
2010-08-12, 02:11:04,VALID,1002.03,VALID,0,VALID,92.6694,VALID,0,VALID,23.8183,VALID,200,VALID,0,
2010-08-12, 02:12:04,VALID,1002.03,VALID,0,VALID,92.7533,VALID,0,VALID,23.8183,VALID,200,VALID,0,
2010-08-12, 02:13:04,VALID,1002.02,VALID,0,VALID,92.7914,VALID,0,VALID,23.8183,VALID,145,VALID,0,
2010-08-12, 02:14:04,VALID,1002.01,VALID,0,VALID,92.7228,VALID,0,VALID,23.7597,VALID,145,VALID,0,
2010-08-12, 02:15:04,VALID,1002.01,VALID,0,VALID,92.6236,VALID,0,VALID,23.7402,VALID,145,VALID,0,
2010-08-12, 02:16:04,VALID,1002,VALID,0,VALID,92.6388,VALID,0,VALID,23.7402,VALID,145,VALID,0.958203,
2010-08-12, 02:17:04,VALID,1002,VALID,0,VALID,92.7685,VALID,0,VALID,23.7988,VALID,145,VALID,0.841016,
2010-08-12, 02:18:04,VALID,1001.98,VALID,0,VALID,92.822,VALID,0,VALID,23.8573,VALID,145,VALID,0.96875,
2010-08-12, 02:19:04,VALID,1001.98,VALID,0,VALID,92.7685,VALID,0,VALID,23.8963,VALID,145,VALID,0.934766,
2010-08-12, 02:20:04,VALID,1001.92,VALID,0,VALID,92.6388,VALID,0,VALID,23.9159,VALID,145,VALID,0.836719,
2010-08-12, 02:21:04,VALID,1001.92,VALID,0,VALID,92.4786,VALID,0,VALID,23.9762,VALID,145,VALID,0.912109,
2010-08-12, 02:22:04,VALID,1001.9,VALID,0,VALID,92.2726,VALID,0,VALID,23.9744,VALID,134,VALID,0.90625,
2010-08-12, 02:23:04,VALID,1001.86,VALID,0,VALID,92.0819,VALID,0,VALID,23.9744,VALID,133,VALID,0.904297,
2010-08-12, 02:24:04,VALID,1001.89,VALID,0,VALID,91.914,VALID,0,VALID,23.9939,VALID,133,VALID,0.853906,
2010-08-12, 02:25:04,VALID,1001.87,VALID,0,VALID,91.8072,VALID,0,VALID,23.9939,VALID,133,VALID,0.910937,
2010-08-12, 02:26:04,VALID,1001.86,VALID,0,VALID,91.7309,VALID,0,VALID,24.0329,VALID,133,VALID,0.752344,
2010-08-12, 02:27:04,VALID,1001.86,VALID,0,VALID,91.6699,VALID,0,VALID,24.0329,VALID,133,VALID,0.851953,
2010-08-12, 02:28:04,VALID,1001.85,VALID,0,VALID,91.6165,VALID,0,VALID,24.0525,VALID,133,VALID,0.721094,
2010-08-12, 02:29:04,VALID,1001.87,VALID,0,VALID,91.5554,VALID,0,VALID,24.0525,VALID,133,VALID,0.542969,
2010-08-12, 02:30:04,VALID,1001.87,VALID,0,VALID,91.4944,VALID,0,VALID,24.072,VALID,133,VALID,0.54375,
2010-08-12, 02:31:04,VALID,1001.85,VALID,0,VALID,91.4715,VALID,0,VALID,24.072,VALID,133,VALID,0.497266,
2010-08-12, 02:32:04,VALID,1001.86,VALID,0,VALID,91.4486,VALID,0,VALID,24.0915,VALID,133,VALID,0.350781,
2010-08-12, 02:33:04,VALID,1001.87,VALID,0,VALID,91.4639,VALID,0,VALID,24.0915,VALID,133,VALID,0.244922,
2010-08-12, 02:34:04,VALID,1001.85,VALID,0,VALID,91.5097,VALID,0,VALID,24.111,VALID,133,VALID,0.205078,
2010-08-12, 02:35:04,VALID,1001.84,VALID,0,VALID,91.5631,VALID,0,VALID,24.1305,VALID,133,VALID,0.35,
2010-08-12, 02:36:04,VALID,1001.86,VALID,0,VALID,91.6012,VALID,0,VALID,24.1287,VALID,133,VALID,0.175781,
2010-08-12, 02:37:04,VALID,1001.86,VALID,0,VALID,91.5936,VALID,0,VALID,24.1287,VALID,133,VALID,0,
2010-08-12, 02:38:04,VALID,1001.88,VALID,0,VALID,91.6012,VALID,0,VALID,24.1287,VALID,133,VALID,0,
2010-08-12, 02:39:04,VALID,1001.85,VALID,0,VALID,91.5631,VALID,0,VALID,24.1287,VALID,133,VALID,0.349609,
2010-08-12, 02:40:04,VALID,1001.83,VALID,0,VALID,91.3876,VALID,0,VALID,24.1287,VALID,133,VALID,0.484766,
2010-08-12, 02:41:04,VALID,1001.79,VALID,0,VALID,91.3571,VALID,0,VALID,24.1482,VALID,133,VALID,0.568359,
2010-08-12, 02:42:04,VALID,1001.77,VALID,0,VALID,91.3266,VALID,0,VALID,24.1872,VALID,140,VALID,0.816406,
2010-08-12, 02:43:04,VALID,1001.78,VALID,0,VALID,91.235,VALID,0,VALID,24.2263,VALID,142,VALID,0.646484,
2010-08-12, 02:44:04,VALID,1001.76,VALID,0,VALID,91.235,VALID,0,VALID,24.2653,VALID,163,VALID,0.673047,
2010-08-12, 02:45:04,VALID,1001.73,VALID,0,VALID,91.0443,VALID,0,VALID,24.2653,VALID,164,VALID,0.89375,
2010-08-12, 02:46:04,VALID,1001.74,VALID,0,VALID,90.7162,VALID,0,VALID,24.3043,VALID,164,VALID,0.699609,
2010-08-12, 02:47:04,VALID,1001.71,VALID,0,VALID,90.4797,VALID,0,VALID,24.3433,VALID,164,VALID,0.864844,
2010-08-12, 02:48:04,VALID,1001.73,VALID,0,VALID,90.06,VALID,0,VALID,24.3629,VALID,164,VALID,0.831641,
2010-08-12, 02:49:04,VALID,1001.73,VALID,0,VALID,89.7472,VALID,0,VALID,24.4019,VALID,164,VALID,0.68125,
2010-08-12, 02:50:04,VALID,1001.71,VALID,0,VALID,89.6404,VALID,0,VALID,24.4214,VALID,164,VALID,0.708203,
2010-08-12, 02:51:04,VALID,1001.72,VALID,0,VALID,89.6557,VALID,0,VALID,24.4623,VALID,164,VALID,0.689453,
2010-08-12, 02:52:04,VALID,1001.7,VALID,0,VALID,89.4649,VALID,0,VALID,24.4623,VALID,164,VALID,0.549219,
2010-08-12, 02:53:04,VALID,1001.7,VALID,0,VALID,89.5336,VALID,0,VALID,24.4623,VALID,164,VALID,0.510938,
2010-08-12, 02:54:04,VALID,1001.71,VALID,0,VALID,89.3581,VALID,0,VALID,24.4409,VALID,164,VALID,0.333594,
2010-08-12, 02:55:04,VALID,1001.7,VALID,0,VALID,89.3886,VALID,0,VALID,24.4604,VALID,164,VALID,0,
2010-08-12, 02:56:04,VALID,1001.68,VALID,0,VALID,89.2437,VALID,0,VALID,24.4623,VALID,164,VALID,0,
2010-08-12, 02:57:04,VALID,1001.68,VALID,0,VALID,89.1903,VALID,0,VALID,24.4818,VALID,164,VALID,0,
2010-08-12, 02:58:04,VALID,1001.65,VALID,0,VALID,89.0758,VALID,0,VALID,24.4818,VALID,164,VALID,0,
2010-08-12, 02:59:04,VALID,1001.69,VALID,0,VALID,88.908,VALID,0,VALID,24.4623,VALID,164,VALID,0,
2010-08-12, 03:00:04,VALID,1001.63,VALID,0,VALID,88.8622,VALID,0,VALID,24.4623,VALID,164,VALID,0,
2010-08-12, 03:01:04,VALID,1001.63,VALID,0,VALID,88.8927,VALID,0,VALID,24.4409,VALID,164,VALID,0.0425781,
2010-08-12, 03:02:04,VALID,1001.64,VALID,0,VALID,88.6943,VALID,0,VALID,24.4428,VALID,164,VALID,0.522656,
2010-08-12, 03:03:04,VALID,1001.62,VALID,0,VALID,88.6714,VALID,0,VALID,24.4214,VALID,164,VALID,0.405859,
2010-08-12, 03:04:04,VALID,1001.58,VALID,0,VALID,88.557,VALID,0,VALID,24.4642,VALID,163,VALID,0.316016,
2010-08-12, 03:05:04,VALID,1001.58,VALID,0,VALID,88.6486,VALID,0,VALID,24.4428,VALID,163,VALID,0.349609,
2010-08-12, 03:06:04,VALID,1001.56,VALID,0,VALID,88.6409,VALID,0,VALID,24.4623,VALID,163,VALID,0.240625,
2010-08-12, 03:07:04,VALID,1001.56,VALID,0,VALID,88.8164,VALID,0,VALID,24.4409,VALID,163,VALID,0,
2010-08-12, 03:08:04,VALID,1001.55,VALID,0,VALID,88.9537,VALID,0,VALID,24.4428,VALID,163,VALID,0,
2010-08-12, 03:09:04,VALID,1001.55,VALID,0,VALID,88.8546,VALID,0,VALID,24.4233,VALID,163,VALID,0,
2010-08-12, 03:10:04,VALID,1001.56,VALID,0,VALID,88.6562,VALID,0,VALID,24.3824,VALID,163,VALID,0,
2010-08-12, 03:11:04,VALID,1001.58,VALID,0,VALID,88.6028,VALID,0,VALID,24.3842,VALID,163,VALID,0,
2010-08-12, 03:12:04,VALID,1001.61,VALID,0,VALID,88.8164,VALID,0,VALID,24.3842,VALID,163,VALID,0,
2010-08-12, 03:13:04,VALID,1001.63,VALID,0,VALID,89.1216,VALID,0,VALID,24.3647,VALID,87,VALID,0.5,
2010-08-12, 03:14:04,VALID,1001.67,VALID,0,VALID,89.4497,VALID,0,VALID,24.3647,VALID,33,VALID,0.915234,
2010-08-12, 03:15:04,VALID,1001.67,VALID,0,VALID,89.7396,VALID,0,VALID,24.3257,VALID,13,VALID,0.810156,
2010-08-12, 03:16:04,VALID,1001.71,VALID,0,VALID,89.9303,VALID,0,VALID,24.3062,VALID,6,VALID,0.876953,
2010-08-12, 03:17:04,VALID,1001.72,VALID,0,VALID,90.1287,VALID,0,VALID,24.2671,VALID,6,VALID,0.641016,
2010-08-12, 03:18:04,VALID,1001.71,VALID,0,VALID,90.3347,VALID,0,VALID,24.2476,VALID,2,VALID,0.687891,
2010-08-12, 03:19:04,VALID,1001.75,VALID,0,VALID,90.5712,VALID,0,VALID,24.2476,VALID,348,VALID,0.571094,
2010-08-12, 03:20:04,VALID,1001.73,VALID,0,VALID,90.7925,VALID,0,VALID,24.2281,VALID,348,VALID,0.590625,
2010-08-12, 03:21:04,VALID,1001.75,VALID,0,VALID,90.9832,VALID,0,VALID,24.2086,VALID,348,VALID,0.624219,
2010-08-12, 03:22:04,VALID,1001.76,VALID,0,VALID,91.0061,VALID,0,VALID,24.1891,VALID,344,VALID,0.542578,
2010-08-12, 03:23:04,VALID,1001.76,VALID,0,VALID,91.0748,VALID,0,VALID,24.1891,VALID,317,VALID,0.540625,
2010-08-12, 03:24:04,VALID,1001.78,VALID,0,VALID,91.1892,VALID,0,VALID,24.1891,VALID,317,VALID,0.292578,
2010-08-12, 03:25:04,VALID,1001.81,VALID,0,VALID,91.2808,VALID,0,VALID,24.1891,VALID,317,VALID,0,
2010-08-12, 03:26:04,VALID,1001.8,VALID,0,VALID,91.3494,VALID,0,VALID,24.1696,VALID,317,VALID,0,
2010-08-12, 03:27:04,VALID,1001.79,VALID,0,VALID,91.296,VALID,0,VALID,24.15,VALID,317,VALID,0,
2010-08-12, 03:28:04,VALID,1001.79,VALID,0,VALID,91.2884,VALID,0,VALID,24.15,VALID,317,VALID,0,
2010-08-12, 03:29:04,VALID,1001.8,VALID,0,VALID,91.2274,VALID,0,VALID,24.15,VALID,317,VALID,0,
2010-08-12, 03:30:04,VALID,1001.75,VALID,0,VALID,91.3113,VALID,0,VALID,24.1696,VALID,294,VALID,0,
2010-08-12, 03:31:04,VALID,1001.78,VALID,0,VALID,91.2121,VALID,0,VALID,24.1696,VALID,282,VALID,0,
2010-08-12, 03:32:04,VALID,1001.78,VALID,0,VALID,91.2274,VALID,0,VALID,24.1696,VALID,282,VALID,0,
2010-08-12, 03:33:04,VALID,1001.81,VALID,0,VALID,91.2045,VALID,0,VALID,24.2086,VALID,282,VALID,0,
2010-08-12, 03:34:04,VALID,1001.78,VALID,0,VALID,91.1358,VALID,0,VALID,24.1891,VALID,282,VALID,0,
2010-08-12, 03:35:04,VALID,1001.8,VALID,0,VALID,91.2197,VALID,0,VALID,24.1891,VALID,282,VALID,0,
2010-08-12, 03:36:04,VALID,1001.81,VALID,0,VALID,91.3037,VALID,0,VALID,24.1891,VALID,282,VALID,0,
2010-08-12, 03:37:05,VALID,1001.78,VALID,0,VALID,91.4563,VALID,0,VALID,24.1891,VALID,282,VALID,0,
2010-08-12, 03:38:05,VALID,1001.81,VALID,0,VALID,91.4486,VALID,0,VALID,24.1696,VALID,282,VALID,0,
2010-08-12, 03:39:05,VALID,1001.81,VALID,0,VALID,91.4868,VALID,0,VALID,24.1482,VALID,282,VALID,0,
2010-08-12, 03:40:05,VALID,1001.82,VALID,0,VALID,91.5478,VALID,0,VALID,24.1696,VALID,282,VALID,0,
2010-08-12, 03:41:05,VALID,1001.83,VALID,0,VALID,91.6241,VALID,0,VALID,24.15,VALID,282,VALID,0,
2010-08-12, 03:42:05,VALID,1001.83,VALID,0,VALID,91.647,VALID,0,VALID,24.15,VALID,282,VALID,0,
2010-08-12, 03:43:05,VALID,1001.84,VALID,0,VALID,91.7004,VALID,0,VALID,24.1305,VALID,282,VALID,0,
2010-08-12, 03:44:05,VALID,1001.84,VALID,0,VALID,91.7614,VALID,0,VALID,24.1092,VALID,282,VALID,0,
2010-08-12, 03:45:05,VALID,1001.83,VALID,0,VALID,91.8683,VALID,0,VALID,24.15,VALID,282,VALID,0,
2010-08-12, 03:46:05,VALID,1001.84,VALID,0,VALID,91.9293,VALID,0,VALID,24.1305,VALID,282,VALID,0,
2010-08-12, 03:47:05,VALID,1001.82,VALID,0,VALID,91.9445,VALID,0,VALID,24.1305,VALID,282,VALID,0,
2010-08-12, 03:48:05,VALID,1001.86,VALID,0,VALID,91.9522,VALID,0,VALID,24.1305,VALID,282,VALID,0,
2010-08-12, 03:49:05,VALID,1001.86,VALID,0,VALID,92.0132,VALID,0,VALID,24.1305,VALID,282,VALID,0,
2010-08-12, 03:50:05,VALID,1001.86,VALID,0,VALID,92.0209,VALID,0,VALID,24.1305,VALID,282,VALID,0,
2010-08-12, 03:51:05,VALID,1001.87,VALID,0,VALID,92.0437,VALID,0,VALID,24.0897,VALID,282,VALID,0,
2010-08-12, 03:52:05,VALID,1001.85,VALID,0,VALID,92.0361,VALID,0,VALID,24.111,VALID,282,VALID,0,
2010-08-12, 03:53:05,VALID,1001.84,VALID,0,VALID,92.0514,VALID,0,VALID,24.0897,VALID,282,VALID,0,
2010-08-12, 03:54:05,VALID,1001.87,VALID,0,VALID,92.0971,VALID,0,VALID,24.0897,VALID,282,VALID,0,
2010-08-12, 03:55:05,VALID,1001.88,VALID,0,VALID,92.1277,VALID,0.112286,VALID,24.0701,VALID,282,VALID,0,